TimePDT,TemperatureF,Dew PointF,Humidity,Sea Level PressureIn,VisibilityMPH,Wind Direction,Wind SpeedMPH,Gust SpeedMPH,PrecipitationIn,Events,Conditions,WindDirDegrees,DateUTC
12:56 AM,89.1,64.0,43,29.81,10.0,WSW,5.8,-,N/A,,Clear,240,2013-09-04 07:56:00
1:56 AM,84.9,66.9,55,29.82,10.0,ESE,5.8,-,N/A,,Clear,120,2013-09-04 08:56:00
2:56 AM,84.9,64.9,51,29.82,10.0,SW,3.5,-,N/A,,Clear,220,2013-09-04 09:56:00
3:56 AM,84.0,64.9,53,29.80,10.0,West,6.9,-,N/A,,Clear,260,2013-09-04 10:56:00
4:56 AM,82.0,64.9,56,29.81,10.0,West,5.8,-,N/A,,Clear,270,2013-09-04 11:56:00
5:56 AM,80.1,68.0,67,29.84,10.0,East,10.4,-,N/A,,Partly Cloudy,100,2013-09-04 12:56:00
6:56 AM,84.0,68.0,58,29.85,10.0,Calm,Calm,-,N/A,,Partly Cloudy,0,2013-09-04 13:56:00
7:56 AM,84.0,71.1,65,29.86,10.0,SSW,3.5,-,N/A,,Scattered Clouds,200,2013-09-04 14:56:00
8:56 AM,89.1,72.0,57,29.88,10.0,SSE,9.2,-,N/A,,Mostly Cloudy,160,2013-09-04 15:56:00
9:21 AM,88.0,73.9,63,29.85,10.0,South,12.7,-,0.00,Rain,Light Rain,170,2013-09-04 16:21:00
9:33 AM,86.0,75.9,72,29.86,8.0,SSE,11.5,-,0.00,Rain,Light Rain,160,2013-09-04 16:33:00
9:40 AM,87.1,73.9,65,29.87,10.0,South,11.5,-,0.00,Rain-Thunderstorm,Light Thunderstorms and Rain,170,2013-09-04 16:40:00
9:56 AM,84.9,75.0,72,29.95,10.0,SE,18.4,24.2,0.00,Thunderstorm,Thunderstorm,130,2013-09-04 16:56:00
10:09 AM,82.9,71.1,67,29.92,3.0,SE,18.4,-,0.00,Rain-Thunderstorm,Thunderstorms and Rain,140,2013-09-04 17:09:00
10:18 AM,81.0,71.1,72,29.93,2.0,SE,21.9,-,0.00,Rain-Thunderstorm,Thunderstorms and Rain,140,2013-09-04 17:18:00
10:32 AM,80.1,71.1,74,29.92,4.0,East,10.4,-,N/A,Rain-Thunderstorm,Light Thunderstorms and Rain,80,2013-09-04 17:32:00
10:56 AM,81.0,73.0,77,29.94,10.0,East,10.4,-,N/A,Rain-Thunderstorm,Light Thunderstorms and Rain,80,2013-09-04 17:56:00
11:24 AM,82.4,71.6,70,29.89,10.0,ENE,16.1,-,N/A,Rain,Light Rain,60,2013-09-04 18:24:00
11:56 AM,86.0,70.0,59,29.93,10.0,North,10.4,-,N/A,Rain,Light Rain,10,2013-09-04 18:56:00
12:35 PM,82.9,75.0,77,29.87,10.0,SSW,10.4,-,N/A,,Mostly Cloudy,210,2013-09-04 19:35:00
12:56 PM,84.0,75.0,74,29.92,10.0,WSW,10.4,-,N/A,,Mostly Cloudy,240,2013-09-04 19:56:00
1:30 PM,87.1,73.0,63,29.85,10.0,West,11.5,-,N/A,Rain,Light Rain,280,2013-09-04 20:30:00
1:56 PM,90.0,73.9,59,29.88,10.0,NW,15.0,-,N/A,,Mostly Cloudy,310,2013-09-04 20:56:00
2:56 PM,93.9,68.0,43,29.86,10.0,NW,10.4,-,N/A,,Scattered Clouds,310,2013-09-04 21:56:00
3:56 PM,95.0,66.0,38,29.85,10.0,West,10.4,-,N/A,,Mostly Cloudy,260,2013-09-04 22:56:00
4:56 PM,96.1,64.9,36,29.83,10.0,West,6.9,-,N/A,,Mostly Cloudy,280,2013-09-04 23:56:00
5:56 PM,96.1,62.1,32,29.81,10.0,North,5.8,-,N/A,,Mostly Cloudy,360,2013-09-05 00:56:00
6:56 PM,91.0,71.1,52,29.82,10.0,ENE,4.6,-,N/A,,Mostly Cloudy,60,2013-09-05 01:56:00
7:56 PM,87.1,68.0,53,29.83,10.0,East,5.8,-,N/A,,Scattered Clouds,80,2013-09-05 02:56:00
8:56 PM,84.9,68.0,57,29.84,10.0,SSW,5.8,-,N/A,,Partly Cloudy,200,2013-09-05 03:56:00
9:56 PM,82.9,73.9,74,29.84,10.0,SW,3.5,-,N/A,,Partly Cloudy,220,2013-09-05 04:56:00
10:56 PM,80.1,73.0,79,29.84,10.0,West,6.9,-,N/A,,Partly Cloudy,270,2013-09-05 05:56:00
11:56 PM,82.0,72.0,71,29.84,10.0,WSW,5.8,-,N/A,,Clear,250,2013-09-05 06:56:00